TimeCDT,TemperatureF,Dew PointF,Humidity,Sea Level PressureIn,VisibilityMPH,Wind Direction,Wind SpeedMPH,Gust SpeedMPH,PrecipitationIn,Events,Conditions,WindDirDegrees,DateUTC
12:56 AM,70.0,68.0,93,29.94,7.0,Calm,Calm,-,N/A,,Scattered Clouds,0,2013-09-04 05:56:00
1:56 AM,70.0,66.9,90,29.94,6.0,Calm,Calm,-,N/A,,Clear,0,2013-09-04 06:56:00
2:56 AM,70.0,66.9,90,29.94,6.0,Calm,Calm,-,N/A,,Clear,0,2013-09-04 07:56:00
3:06 AM,69.8,66.2,88,29.98,5.0,NNE,4.6,-,N/A,,Scattered Clouds,20,2013-09-04 08:06:00
3:17 AM,69.8,66.2,88,29.98,7.0,Calm,Calm,-,N/A,,Mostly Cloudy,0,2013-09-04 08:17:00
3:56 AM,70.0,66.9,90,29.94,7.0,Calm,Calm,-,N/A,,Overcast,0,2013-09-04 08:56:00
4:39 AM,71.6,68.0,88,29.98,3.0,Calm,Calm,-,N/A,,Overcast,0,2013-09-04 09:39:00
4:46 AM,71.6,68.0,88,29.99,2.0,Calm,Calm,-,N/A,,Overcast,0,2013-09-04 09:46:00
4:56 AM,71.1,68.0,90,29.95,3.0,Calm,Calm,-,N/A,,Overcast,0,2013-09-04 09:56:00
5:04 AM,71.6,66.2,83,29.99,2.5,North,3.5,-,N/A,,Overcast,350,2013-09-04 10:04:00
5:12 AM,71.6,68.0,88,29.99,3.0,Calm,Calm,-,N/A,,Overcast,0,2013-09-04 10:12:00
5:47 AM,71.6,68.0,88,30.00,3.0,Calm,Calm,-,N/A,,Scattered Clouds,0,2013-09-04 10:47:00
5:56 AM,70.0,66.9,90,29.96,3.0,Calm,Calm,-,N/A,,Scattered Clouds,0,2013-09-04 10:56:00
6:25 AM,71.6,68.0,88,30.01,4.0,Calm,Calm,-,N/A,,Overcast,0,2013-09-04 11:25:00
6:35 AM,71.6,68.0,88,30.02,2.0,Calm,Calm,-,N/A,,Overcast,0,2013-09-04 11:35:00
6:56 AM,72.0,69.1,91,29.98,4.0,Calm,Calm,-,N/A,,Mostly Cloudy,0,2013-09-04 11:56:00
7:41 AM,73.4,71.6,94,30.04,0.8,Calm,Calm,-,N/A,,Mostly Cloudy,0,2013-09-04 12:41:00
7:56 AM,73.9,71.1,91,30.01,0.8,Calm,Calm,-,N/A,,Mostly Cloudy,0,2013-09-04 12:56:00
8:56 AM,75.9,73.9,94,30.02,1.0,Calm,Calm,-,N/A,,Mostly Cloudy,0,2013-09-04 13:56:00
9:17 AM,78.8,75.2,89,30.07,7.0,SSE,3.5,-,N/A,,Scattered Clouds,150,2013-09-04 14:17:00
9:56 AM,82.9,75.0,77,30.04,10.0,Calm,Calm,-,N/A,,Scattered Clouds,0,2013-09-04 14:56:00
10:56 AM,84.9,73.0,67,30.04,10.0,WNW,3.5,-,N/A,,Mostly Cloudy,300,2013-09-04 15:56:00
11:56 AM,88.0,72.0,59,30.02,10.0,Variable,3.5,-,N/A,,Mostly Cloudy,0,2013-09-04 16:56:00
12:56 PM,90.0,72.0,55,30.01,10.0,Variable,3.5,-,N/A,,Mostly Cloudy,0,2013-09-04 17:56:00
1:56 PM,91.0,72.0,53,30.00,10.0,Variable,3.5,-,N/A,,Mostly Cloudy,0,2013-09-04 18:56:00
2:56 PM,89.1,73.9,61,29.98,10.0,South,10.4,-,N/A,,Scattered Clouds,190,2013-09-04 19:56:00
3:56 PM,88.0,75.9,67,29.96,10.0,ESE,3.5,-,N/A,,Scattered Clouds,110,2013-09-04 20:56:00
4:56 PM,86.0,70.0,59,29.98,10.0,SSW,9.2,-,N/A,,Scattered Clouds,200,2013-09-04 21:56:00
5:56 PM,82.9,73.0,72,30.00,10.0,SW,8.1,-,N/A,,Mostly Cloudy,220,2013-09-04 22:56:00
6:56 PM,79.0,72.0,79,29.98,9.0,WNW,3.5,-,N/A,,Mostly Cloudy,300,2013-09-04 23:56:00
7:56 PM,77.0,72.0,84,30.02,10.0,NNE,4.6,-,N/A,,Mostly Cloudy,30,2013-09-05 00:56:00
8:56 PM,77.0,72.0,84,30.03,10.0,Calm,Calm,-,N/A,,Mostly Cloudy,0,2013-09-05 01:56:00
9:56 PM,75.9,72.0,87,30.05,10.0,Calm,Calm,-,N/A,,Mostly Cloudy,0,2013-09-05 02:56:00
10:56 PM,75.0,72.0,90,30.04,8.0,Calm,Calm,-,N/A,,Mostly Cloudy,0,2013-09-05 03:56:00
11:56 PM,75.0,71.1,87,30.03,8.0,Calm,Calm,-,N/A,,Mostly Cloudy,0,2013-09-05 04:56:00